(320191) = 2007 GX58

Discovered at Mount Lemmon on 2007-04-15 by Mt. Lemmon Survey.

Orbit

Orbit type: Main Belt

Note: WebGL enabled browser required.

epoch2023-02-25.0
epoch JD2460000.5
perihelion date2023-01-22.96361
perihelion JD2459967.46361
argument of perihelion (°)189.90070
ascending node (°)4.08361
inclination (°)9.28669
eccentricity0.0801129
perihelion distance (AU)2.7723425
Tisserand w.r.t. Jupiter3.2
ΔV w.r.t. Earth (km/sec)10.8
semimajor axis (AU)3.0137856
mean anomaly (°)6.22340
mean daily motion (°/day)0.18838020
aphelion distance (AU)3.255
period (years)5.23
P-vector [x]-0.97052244
P-vector [y]-0.20861568
P-vector [z]-0.12068844
Q-vector [x]0.24073666
Q-vector [y]-0.81523849
Q-vector [z]-0.52671820
absolute magnitude16.23
phase slope0.15
uncertainty0
referenceMPO 745323
observations used229
oppositions12
arc length (days)6822
first opposition used2004
last opposition used2023
residual rms (arc-secs)0.75
perturbers coarse indicatorM-v
perturbers precise indicator003Ek
first observation date used2004-10-05.0
last observation date used2023-06-10.0
computer nameMPCLINUX
JD of orbit computation2456937.504070
perihelion JD uncertainty (days)2.4432E-04
argument of perihelion uncertainty (°)5.5917E-05
ascending node uncertainty (°)3.3141E-05
inclination uncertainty (°)1.4064E-05
eccentricity uncertainty 1.2632E-07
perihelion distance uncertainty (AU)3.7768E-07
Minimum Orbit Intersection Distances (in AU)
for orbit epoch: 2460000.5, reference: E2023-L52
Mercury2.34731
Venus2.05434
Earth1.77284
Mars1.12631
Jupiter1.70396
Saturn6.01147
Uranus15.641
Neptune26.6084

Observations

238 total observations over interval: 2004 10 05.16526 – 2023 06 10.310516
These data are available for download (format description).

Date (UT) J2000 RA J2000 Dec Magn Location Ref
2004 10 05.16526 00 56 30.36 +08 44 40.0 20.6 V 691 – Steward Observatory, Kitt Peak-Spacewatch MPS 209090
2004 10 05.19294 00 56 28.96 +08 44 35.6 20.5 V 691 – Steward Observatory, Kitt Peak-Spacewatch MPS 209090
2004 10 05.22150 00 56 27.49 +08 44 31.2 20.7 V 691 – Steward Observatory, Kitt Peak-Spacewatch MPS 209090
2004 10 13.15760 00 49 51.66 +08 22 19.7 20.8 V 691 – Steward Observatory, Kitt Peak-Spacewatch MPS 209090
2004 10 13.18453 00 49 50.29 +08 22 14.4 21.2 V 691 – Steward Observatory, Kitt Peak-Spacewatch MPS 209090
2004 10 13.21147 00 49 48.93 +08 22 10.5 20.5 V 691 – Steward Observatory, Kitt Peak-Spacewatch MPS 209090
2007 03 09.27097 12 21 42.60 -00 58 20.5 20.6 V 691 – Steward Observatory, Kitt Peak-Spacewatch MPS 209090
2007 03 09.28611 12 21 41.86 -00 58 18.7 20.9 V 691 – Steward Observatory, Kitt Peak-Spacewatch MPS 209090
2007 03 09.30124 12 21 41.14 -00 58 16.7 20.4 V 691 – Steward Observatory, Kitt Peak-Spacewatch MPS 209090
2007 03 16.34588 12 15 58.35 -00 45 03.9 19.8 V G96 – Mt. Lemmon Survey MPS 209090
2007 03 16.35214 12 15 58.03 -00 45 03.2 19.9 V G96 – Mt. Lemmon Survey MPS 209090
2007 03 16.35847 12 15 57.67 -00 45 02.6 19.7 V G96 – Mt. Lemmon Survey MPS 209090
2007 03 16.36480 12 15 57.34 -00 45 01.7 20.1 V G96 – Mt. Lemmon Survey MPS 209090
2007 03 26.19366 12 07 26.07 -00 24 20.7 20.4 V 691 – Steward Observatory, Kitt Peak-Spacewatch MPS 209090
2007 03 26.21125 12 07 25.04 -00 24 17.6 20.5 V 691 – Steward Observatory, Kitt Peak-Spacewatch MPS 209090
2007 03 26.22884 12 07 24.18 -00 24 16.1 20.1 V 691 – Steward Observatory, Kitt Peak-Spacewatch MPS 209090
2007 03 26.26197 12 07 22.40 -00 24 12.2 20.0 V G96 – Mt. Lemmon Survey MPS 209090
2007 03 26.26865 12 07 22.04 -00 24 11.4 20.0 V G96 – Mt. Lemmon Survey MPS 209090
2007 03 26.27528 12 07 21.68 -00 24 10.6 20.0 V G96 – Mt. Lemmon Survey MPS 209090
2007 03 26.28179 12 07 21.32 -00 24 09.8 20.0 V G96 – Mt. Lemmon Survey MPS 209091
2007 04 15.25535 11 51 34.56 +00 08 44.3 20.5 V G96 – Mt. Lemmon Survey MPS 208202
2007 04 15.26413 11 51 34.20 +00 08 44.5 20.4 V G96 – Mt. Lemmon Survey MPS 208202
2007 04 15.27298 11 51 33.84 +00 08 45.3 20.3 V G96 – Mt. Lemmon Survey MPS 208202
2007 04 15.28182 11 51 33.48 +00 08 45.7 20.4 V G96 – Mt. Lemmon Survey MPS 208202
2007 04 19.21056 11 49 08.40 +00 11 42.7 20.4 V G96 – Mt. Lemmon Survey MPS 208202
2007 04 19.21786 11 49 08.14 +00 11 42.9 20.4 V G96 – Mt. Lemmon Survey MPS 208202
2007 04 19.22512 11 49 07.89 +00 11 43.3 19.9 V G96 – Mt. Lemmon Survey MPS 208202
2007 04 19.23234 11 49 07.64 +00 11 43.7 19.8 V G96 – Mt. Lemmon Survey MPS 208202
2009 08 20.41473 00 20 22.19 -00 21 52.2   691 – Steward Observatory, Kitt Peak-Spacewatch MPS 291784
2009 08 20.43308 00 20 21.62 -00 21 53.8   691 – Steward Observatory, Kitt Peak-Spacewatch MPS 291784
2009 08 20.45118 00 20 21.08 -00 21 55.4   691 – Steward Observatory, Kitt Peak-Spacewatch MPS 291784
2009 09 26.23307 23 54 11.62 -01 49 49.8 20.6 V G96 – Mt. Lemmon Survey MPS 296989
2009 09 26.23929 23 54 11.30 -01 49 50.7 20.8 V G96 – Mt. Lemmon Survey MPS 296989
2009 09 26.24546 23 54 11.01 -01 49 51.8 20.7 V G96 – Mt. Lemmon Survey MPS 296989
2009 09 26.25154 23 54 10.72 -01 49 52.6 20.8 V G96 – Mt. Lemmon Survey MPS 296989
2009 10 18.20415 23 38 26.70 -02 36 31.2 20.9 V G96 – Mt. Lemmon Survey MPS 299446
2009 10 18.21159 23 38 26.48 -02 36 31.5 21.2 V G96 – Mt. Lemmon Survey MPS 299446
2009 10 18.21903 23 38 26.19 -02 36 32.4 20.6 V G96 – Mt. Lemmon Survey MPS 299446
2009 10 18.22654 23 38 25.90 -02 36 32.9 20.9 V G96 – Mt. Lemmon Survey MPS 299446
2010 11 12.45168 04 47 10.71 +34 11 02.1 20.5 V G96 – Mt. Lemmon Survey MPS 355469
2010 11 12.45860 04 47 10.32 +34 11 02.3 20.2 V G96 – Mt. Lemmon Survey MPS 355469
2010 11 12.46561 04 47 10.03 +34 11 03.4 21.4 V G96 – Mt. Lemmon Survey MPS 355469
2010 11 12.47254 04 47 09.56 +34 11 03.5 20.4 V G96 – Mt. Lemmon Survey MPS 355469
2010 12 09.31703 04 21 09.18 +34 08 54.2 20.2 V G96 – Mt. Lemmon Survey MPS 359077
2010 12 09.32490 04 21 08.67 +34 08 52.6 20.1 V G96 – Mt. Lemmon Survey MPS 359077
2010 12 09.33284 04 21 08.17 +34 08 52.4 20.2 V G96 – Mt. Lemmon Survey MPS 359077
2010 12 09.34072 04 21 07.70 +34 08 51.5 20.5 V G96 – Mt. Lemmon Survey MPS 359077
2012 01 21.47099 11 14 59.84 +12 36 17.0 20.8 V 691 – Steward Observatory, Kitt Peak-Spacewatch MPS 408827
2012 01 21.48893 11 14 59.58 +12 36 18.1 20.8 V 691 – Steward Observatory, Kitt Peak-Spacewatch MPS 408827
2012 01 21.50686 11 14 59.29 +12 36 19.3 20.8 V 691 – Steward Observatory, Kitt Peak-Spacewatch MPS 408827
2012 02 16.52183 11 00 37.021 +13 34 39.85 20.5 w F51 – Pan-STARRS 1, Haleakala MPS 411583
2012 02 16.53650 11 00 36.283 +13 34 42.18 20.6 w F51 – Pan-STARRS 1, Haleakala MPS 411583
2012 02 16.56587 11 00 34.839 +13 34 47.21 20.3 w F51 – Pan-STARRS 1, Haleakala MPS 411583
2012 02 24.26121 10 54 03.85 +13 55 34.6 19.7 V G96 – Mt. Lemmon Survey MPS 413031
2012 02 24.26874 10 54 03.42 +13 55 35.7 19.8 V G96 – Mt. Lemmon Survey MPS 413031
2012 02 24.27627 10 54 03.02 +13 55 36.8 19.8 V G96 – Mt. Lemmon Survey MPS 413031
2012 02 24.28389 10 54 02.59 +13 55 38.1 19.7 V G96 – Mt. Lemmon Survey MPS 413031
2014 09 02.28464 23 05 56.82 -11 22 36.5 20.0 V G96 – Mt. Lemmon Survey MPS 531317
2014 09 02.28921 23 05 56.58 -11 22 37.1 20.1 V G96 – Mt. Lemmon Survey MPS 531317
2014 09 02.29378 23 05 56.37 -11 22 38.1 20.2 V G96 – Mt. Lemmon Survey MPS 531317
2014 09 02.29836 23 05 56.12 -11 22 38.9 20.3 V G96 – Mt. Lemmon Survey MPS 531317
2014 09 02.35532 23 05 53.420 -11 22 47.65 20.5 i F51 – Pan-STARRS 1, Haleakala MPS 531317
2014 09 02.36894 23 05 52.718 -11 22 50.03 20.5 i F51 – Pan-STARRS 1, Haleakala MPS 531317
2014 09 02.38250 23 05 52.035 -11 22 52.33 20.3 i F51 – Pan-STARRS 1, Haleakala MPS 531317
2014 09 02.39605 23 05 51.345 -11 22 54.61 20.3 i F51 – Pan-STARRS 1, Haleakala MPS 531317
2014 09 18.29537 22 52 52.509 -12 00 55.96 20.9 w F51 – Pan-STARRS 1, Haleakala MPS 532974
2014 09 18.30698 22 52 51.956 -12 00 57.25 20.7 w F51 – Pan-STARRS 1, Haleakala MPS 532974
2014 09 18.37693 22 52 48.601 -12 01 04.93 20.8 w F51 – Pan-STARRS 1, Haleakala MPS 532974
2014 10 03.21222 22 42 40.66 -12 16 52.8 21.4 V G96 – Mt. Lemmon Survey MPS 538685
2014 10 03.22226 22 42 40.27 -12 16 52.1 21.8 V G96 – Mt. Lemmon Survey MPS 538685
2014 10 03.23229 22 42 39.90 -12 16 53.0 20.8 V G96 – Mt. Lemmon Survey MPS 538685
2014 10 03.24232 22 42 39.63 -12 16 52.2 20.8 V G96 – Mt. Lemmon Survey MPS 538685
2017 01 21.75847 09 41 32.05 +25 15 03.0 20.5 R D29 – Purple Mountain Observatory, XuYi Station MPS 761865
2017 01 21.76554 09 41 31.66 +25 15 05.2 20.6 R D29 – Purple Mountain Observatory, XuYi Station MPS 761865
2017 01 21.76820 09 41 31.64 +25 15 05.3 20.5 R D29 – Purple Mountain Observatory, XuYi Station MPS 761865
2017 01 21.77703 09 41 31.24 +25 15 06.9 20.8 R D29 – Purple Mountain Observatory, XuYi Station MPS 761865
2017 01 21.78410 09 41 30.73 +25 15 08.3 20.3 R D29 – Purple Mountain Observatory, XuYi Station MPS 761865
2017 01 21.78676 09 41 30.66 +25 15 09.7 20.8 R D29 – Purple Mountain Observatory, XuYi Station MPS 761865
2017 01 21.79559 09 41 30.24 +25 15 10.3 19.9 R D29 – Purple Mountain Observatory, XuYi Station MPS 761865
2017 01 24.42876 09 39 21.639 +25 24 04.29 20.0 i F51 – Pan-STARRS 1, Haleakala MPS 761865
2017 01 24.44122 09 39 20.990 +25 24 06.80 19.9 i F51 – Pan-STARRS 1, Haleakala MPS 761865
2017 01 24.61688 09 39 11.833 +25 24 41.22 20.1 i F51 – Pan-STARRS 1, Haleakala MPS 761865
2017 01 28.09907 09 36 11.14 +25 35 51.0 20.5   J43 – Oukaimeden Observatory, Marrakech MPS 765557
2017 01 28.11269 09 36 10.37 +25 35 53.2 20.2   J43 – Oukaimeden Observatory, Marrakech MPS 765557
2017 01 28.12625 09 36 09.62 +25 35 55.6 20.3   J43 – Oukaimeden Observatory, Marrakech MPS 765557
2017 01 28.13981 09 36 08.89 +25 35 58.6 20.2   J43 – Oukaimeden Observatory, Marrakech MPS 765557
2017 01 31.43335 09 33 09.33 +25 45 44.1   G96 – Mt. Lemmon Survey MPS 765557
2017 01 31.44068 09 33 08.93 +25 45 44.9 19.7 V G96 – Mt. Lemmon Survey MPS 765557
2017 01 31.44703 09 33 08.56 +25 45 46.0 19.8 V G96 – Mt. Lemmon Survey MPS 765557
